This is the latest recevied weather packets stored in our database for station/object DL6DJ-15. If no packets are shown the sender has not sent any weather packets the latest 10 day(s).
| Time | Temp. | Humidity | Pressure | Rain* | Wind** | Luminosity | Snow |
|---|---|---|---|---|---|---|---|
| 1788511044 | 31.11° C | 35% | 1021 hPa | - | - | - | - |
| 1788510744 | 30° C | 36% | 1020.9 hPa | - | - | - | - |
| 1788510443 | 30° C | 37% | 1021 hPa | - | - | - | - |
| 1788510143 | 29.44° C | 37% | 1021 hPa | - | - | - | - |
| 1788509842 | 28.89° C | 39% | 1021.1 hPa | - | - | - | - |
| 1788509542 | 29.44° C | 39% | 1021.1 hPa | - | - | - | - |
| 1788509241 | 27.22° C | 42% | 1021 hPa | - | - | - | - |
| 1788508941 | 25.56° C | 46% | 1021.1 hPa | - | - | - | - |
| 1788508640 | 25° C | 47% | 1021 hPa | - | - | - | - |
| 1788508340 | 25° C | 47% | 1021 hPa | - | - | - | - |
| 1788508040 | 25° C | 47% | 1021 hPa | - | - | - | - |
| 1788507739 | 25° C | 47% | 1021.1 hPa | - | - | - | - |
| 1788507439 | 25° C | 49% | 1021.2 hPa | - | - | - | - |
| 1788507138 | 23.33° C | 52% | 1021.2 hPa | - | - | - | - |
| 1788506838 | 22.78° C | 54% | 1021.3 hPa | - | - | - | - |
| 1788506538 | 22.78° C | 55% | 1021.3 hPa | - | - | - | - |
| 1788506238 | 22.22° C | 56% | 1021.2 hPa | - | - | - | - |
| 1788505937 | 21.67° C | 58% | 1021.3 hPa | - | - | - | - |
| 1788505637 | 21.67° C | 58% | 1021.4 hPa | - | - | - | - |
| 1788505336 | 21.67° C | 57% | 1021.4 hPa | - | - | - | - |
| 1788505036 | 20.56° C | 61% | 1021.4 hPa | - | - | - | - |
| 1788504736 | 20° C | 63% | 1021.5 hPa | - | - | - | - |
| 1788504435 | 19.44° C | 65% | 1021.4 hPa | - | - | - | - |
| 1788504135 | 18.89° C | 65% | 1021.3 hPa | - | - | - | - |
| 1788503834 | 18.89° C | 65% | 1021.4 hPa | - | - | - | - |
* Rain since midnight (hover to see other rain measurements)
** Current wind speed in m/s (hover to see current wind gust speed)